Location: Asheville, NC
(35.6000°N, 82.5500°W)
Time: 04:13:06
(UTC-05:00)

Hubble Space Telescope - Pass Details

Date: 04 January 2018
Orbit: 537 x 541 km, 28.5° (Epoch: 18 January)

Event Time Altitude Azimuth Distance (km) Brightness Sun altitude
Exits shadow 06:42:28 - 241° (WSW) 2,092 3.4 -11.6°
Reaches altitude 10° 06:43:21 10° 236° (SW) 1,782 3.1 -11.4°
Maximum altitude 06:46:57 29° 176° (S) 996 2.4 -10.7°
Drops below altitude 10° 06:50:32 10° 115° (ESE) 1,781 5.1 -10.0°
Sets 06:52:59 0° 104° (ESE) 2,671 6.5 -9.6°
